UZB234 UZTT-UBBB

Flight info

Callsign UZB234
Flight time 2h 37m
Altitude 38000
Route DODUR1B DODUR Z554 DIBAD N193 OGOLI T898 ZAMWO Z626 DARVA/N0444F380 B476 NEBIT B738 KRS B143 TUNEK A909 RODAR M11 AMOKU
Aircraft A20N/M-SDE2E3FGHIRWXY/LB1

Departure

Time 2026-04-27 16:31
Airport Tashkent International Airport (UZTT)

Arrival

Time 2026-04-27 19:08
Airport Heydar Aliyev International Airport (UBBB)
Time Latitude Longitude Altitude Speed Heading
2026-04-27 16:06 41.26012 69.26948 1404 ft 0 kts 333°
2026-04-27 16:27 41.26033 69.26929 1406 ft 3 kts 314°
2026-04-27 16:28 41.26039 69.26858 1403 ft 5 kts 254°
2026-04-27 16:28 41.26000 69.26726 1403 ft 10 kts 246°
2026-04-27 16:29 41.25868 69.26496 1410 ft 12 kts 198°
2026-04-27 16:30 41.25672 69.26443 1409 ft 17 kts 121°
2026-04-27 16:30 41.25673 69.26549 1404 ft 9 kts 81°
2026-04-27 16:31 41.25984 69.29343 1491 ft 165 kts 80°
2026-04-27 16:31 41.26318 69.32245 2590 ft 161 kts 78°
2026-04-27 16:32 41.26651 69.35302 3411 ft 180 kts 79°
2026-04-27 16:32 41.26855 69.37010 3678 ft 199 kts 80°
2026-04-27 16:33 41.27295 69.40892 4791 ft 216 kts 82°
2026-04-27 16:33 41.27508 69.42883 5500 ft 220 kts 82°
2026-04-27 16:33 41.27722 69.44927 6177 ft 228 kts 83°
2026-04-27 16:33 41.27948 69.47103 6615 ft 248 kts 83°
2026-04-27 16:34 41.28080 69.49486 6983 ft 270 kts 96°
2026-04-27 16:34 41.27543 69.51969 7307 ft 292 kts 119°
2026-04-27 16:34 41.26175 69.54092 7631 ft 314 kts 143°
2026-04-27 16:34 41.24155 69.55398 7911 ft 335 kts 166°
2026-04-27 16:35 41.21814 69.55701 8545 ft 342 kts 186°
2026-04-27 16:35 41.19529 69.54819 9317 ft 346 kts 208°
2026-04-27 16:35 41.16400 69.50133 10813 ft 351 kts 251°
2026-04-27 16:36 41.15978 69.46949 11550 ft 355 kts 271°
2026-04-27 16:36 41.16165 69.43664 12267 ft 359 kts 275°
2026-04-27 16:36 41.16345 69.40338 12994 ft 363 kts 272°
2026-04-27 16:36 41.16320 69.36968 13713 ft 367 kts 267°
2026-04-27 16:37 41.16108 69.33576 14382 ft 370 kts 263°
2026-04-27 16:37 41.15786 69.30185 15074 ft 372 kts 262°
2026-04-27 16:37 41.15412 69.26769 15707 ft 376 kts 261°
2026-04-27 16:37 41.15019 69.23327 16353 ft 379 kts 261°
2026-04-27 16:38 41.14450 69.19909 16974 ft 381 kts 249°
2026-04-27 16:38 41.13200 69.16797 17613 ft 383 kts 233°
2026-04-27 16:38 41.11330 69.14283 18223 ft 386 kts 216°
2026-04-27 16:38 41.08972 69.12571 18765 ft 389 kts 200°
2026-04-27 16:39 41.06324 69.11825 19306 ft 393 kts 184°
2026-04-27 16:39 41.03584 69.12051 19836 ft 397 kts 173°
2026-04-27 16:39 41.00866 69.12563 20346 ft 400 kts 173°
2026-04-27 16:39 40.98099 69.13100 20876 ft 403 kts 173°
2026-04-27 16:40 40.95303 69.13564 21388 ft 405 kts 179°
2026-04-27 16:40 40.92493 69.13281 21904 ft 405 kts 193°
2026-04-27 16:40 40.89824 69.12082 22405 ft 406 kts 207°
2026-04-27 16:40 40.87406 69.10158 22922 ft 408 kts 213°
2026-04-27 16:41 40.85012 69.08122 23463 ft 410 kts 214°
2026-04-27 16:41 40.82787 69.05774 23876 ft 411 kts 226°
2026-04-27 16:41 40.81014 69.02812 24316 ft 413 kts 239°
2026-04-27 16:41 40.79791 68.99382 24723 ft 415 kts 251°
2026-04-27 16:42 40.79189 68.95652 25143 ft 418 kts 264°
2026-04-27 16:42 40.79245 68.91855 25542 ft 422 kts 276°
2026-04-27 16:42 40.79738 68.88024 25932 ft 425 kts 278°
2026-04-27 16:42 40.80421 68.84211 26325 ft 428 kts 285°
2026-04-27 16:43 40.81490 68.80529 26717 ft 433 kts 295°
2026-04-27 16:43 40.83116 68.77160 27080 ft 438 kts 303°
2026-04-27 16:43 40.84908 68.73879 27447 ft 440 kts 303°
2026-04-27 16:43 40.86705 68.70602 27812 ft 441 kts 303°
2026-04-27 16:44 40.88508 68.67309 28168 ft 443 kts 303°
2026-04-27 16:44 40.90293 68.64041 28503 ft 445 kts 303°
2026-04-27 16:44 40.92102 68.60719 28836 ft 446 kts 303°
2026-04-27 16:44 40.93915 68.57384 29143 ft 448 kts 303°
2026-04-27 16:45 40.95734 68.54034 29457 ft 449 kts 303°
2026-04-27 16:45 40.97563 68.50660 29766 ft 451 kts 303°
2026-04-27 16:45 40.99395 68.47278 30062 ft 453 kts 302°
2026-04-27 16:45 41.01232 68.43882 30309 ft 454 kts 302°
2026-04-27 16:46 41.02451 68.41628 30488 ft 455 kts 302°
2026-04-27 16:46 41.04298 68.38208 30743 ft 457 kts 302°
2026-04-27 16:46 41.06148 68.34779 30980 ft 458 kts 302°
2026-04-27 16:46 41.07998 68.31346 31320 ft 455 kts 302°
2026-04-27 16:47 41.09815 68.27977 32106 ft 444 kts 302°
2026-04-27 16:47 41.11596 68.24669 32640 ft 439 kts 302°
2026-04-27 16:47 41.13369 68.21368 32997 ft 438 kts 302°
2026-04-27 16:47 41.15703 68.17012 33426 ft 437 kts 302°
2026-04-27 16:48 41.16893 68.14790 33649 ft 436 kts 302°
2026-04-27 16:48 41.18650 68.11507 33970 ft 435 kts 302°
2026-04-27 16:48 41.20401 68.08233 34247 ft 434 kts 302°
2026-04-27 16:49 41.23884 68.01711 34800 ft 431 kts 302°
2026-04-27 16:49 41.25611 67.98463 35078 ft 429 kts 301°
2026-04-27 16:49 41.27136 67.95077 35315 ft 425 kts 294°
2026-04-27 16:49 41.28318 67.91544 35542 ft 421 kts 287°
2026-04-27 16:50 41.29183 67.87837 35777 ft 418 kts 281°
2026-04-27 16:50 41.29775 67.84070 36008 ft 416 kts 279°
2026-04-27 16:50 41.30360 67.80299 36230 ft 415 kts 279°
2026-04-27 16:50 41.30949 67.76539 36457 ft 414 kts 280°
2026-04-27 16:51 41.31535 67.72795 36686 ft 413 kts 280°
2026-04-27 16:51 41.32116 67.69058 36898 ft 411 kts 280°
2026-04-27 16:51 41.32692 67.65339 37122 ft 410 kts 279°
2026-04-27 16:51 41.33264 67.61625 37307 ft 409 kts 279°
2026-04-27 16:52 41.33833 67.57918 37505 ft 408 kts 279°
2026-04-27 16:52 41.34398 67.54230 37706 ft 406 kts 279°
2026-04-27 16:52 41.34955 67.50587 37881 ft 405 kts 279°
2026-04-27 16:52 41.35517 67.46904 37953 ft 405 kts 279°
2026-04-27 16:53 41.36629 67.39584 37955 ft 403 kts 279°
2026-04-27 16:53 41.37736 67.32277 37956 ft 403 kts 279°
2026-04-27 16:54 41.38838 67.24961 37962 ft 402 kts 279°
2026-04-27 16:54 41.39933 67.17662 37961 ft 402 kts 279°
2026-04-27 16:55 41.41017 67.10408 37967 ft 401 kts 279°
2026-04-27 16:55 41.42101 67.03114 37964 ft 401 kts 279°
2026-04-27 16:56 41.43180 66.95824 37970 ft 401 kts 279°
2026-04-27 16:56 41.44255 66.88523 37967 ft 400 kts 279°
2026-04-27 16:57 41.45324 66.81236 37969 ft 400 kts 279°
2026-04-27 16:57 41.46386 66.73957 37969 ft 400 kts 279°
2026-04-27 16:58 41.47436 66.66733 37969 ft 399 kts 279°
2026-04-27 16:58 41.48212 66.59379 37966 ft 397 kts 272°
2026-04-27 16:59 41.48295 66.52069 37969 ft 396 kts 269°
2026-04-27 16:59 41.48316 66.44707 37964 ft 396 kts 270°
2026-04-27 17:00 41.48340 66.33700 37959 ft 395 kts 269°
2026-04-27 17:01 41.48345 66.26364 37962 ft 395 kts 269°
2026-04-27 17:01 41.48346 66.19097 37961 ft 394 kts 269°
2026-04-27 17:02 41.48342 66.11776 37965 ft 394 kts 269°
2026-04-27 17:02 41.48334 66.04452 37965 ft 394 kts 269°
2026-04-27 17:03 41.48320 65.97186 37964 ft 394 kts 269°
2026-04-27 17:03 41.48303 65.89878 37965 ft 393 kts 269°
2026-04-27 17:04 41.48280 65.82583 37968 ft 393 kts 269°
2026-04-27 17:04 41.48243 65.75284 37972 ft 393 kts 269°
2026-04-27 17:05 41.48157 65.67999 37966 ft 392 kts 268°
2026-04-27 17:05 41.48071 65.60741 37976 ft 392 kts 269°
2026-04-27 17:06 41.47984 65.53517 37964 ft 392 kts 268°
2026-04-27 17:06 41.47894 65.46241 37967 ft 392 kts 268°
2026-04-27 17:07 41.47798 65.38969 38052 ft 393 kts 268°
2026-04-27 17:07 41.47749 65.35327 38194 ft 392 kts 268°
2026-04-27 17:07 41.47698 65.31693 38365 ft 391 kts 268°
2026-04-27 17:07 41.47646 65.28069 38501 ft 391 kts 268°
2026-04-27 17:08 41.47594 65.24487 38606 ft 391 kts 268°
2026-04-27 17:08 41.47540 65.20866 38709 ft 390 kts 268°
2026-04-27 17:08 41.47485 65.17244 38790 ft 390 kts 268°
2026-04-27 17:09 41.47372 65.10001 38906 ft 391 kts 268°
2026-04-27 17:09 41.47254 65.02738 39044 ft 392 kts 268°
2026-04-27 17:10 41.47133 64.95461 39029 ft 398 kts 267°
2026-04-27 17:10 41.47002 64.88008 38952 ft 403 kts 267°
2026-04-27 17:11 41.46865 64.80508 39011 ft 405 kts 267°
2026-04-27 17:11 41.46725 64.73044 38753 ft 405 kts 267°
2026-04-27 17:11 41.46652 64.69270 38183 ft 408 kts 267°
2026-04-27 17:12 41.46498 64.61590 37989 ft 418 kts 267°
2026-04-27 17:12 41.46419 64.57707 37989 ft 421 kts 267°
2026-04-27 17:13 41.46256 64.49865 37988 ft 423 kts 267°
2026-04-27 17:13 41.46089 64.42041 37988 ft 422 kts 267°
2026-04-27 17:14 41.45915 64.34211 37985 ft 423 kts 267°
2026-04-27 17:14 41.45736 64.26414 37985 ft 423 kts 267°
2026-04-27 17:15 41.45552 64.18574 37983 ft 423 kts 267°
2026-04-27 17:15 41.45362 64.10741 37981 ft 423 kts 267°
2026-04-27 17:16 41.45167 64.02906 37979 ft 423 kts 267°
2026-04-27 17:16 41.44966 63.95075 37983 ft 423 kts 267°
2026-04-27 17:17 41.44760 63.87243 37981 ft 423 kts 267°
2026-04-27 17:17 41.44549 63.79406 37980 ft 423 kts 267°
2026-04-27 17:18 41.44226 63.67706 37973 ft 423 kts 267°
2026-04-27 17:18 41.43994 63.59871 37975 ft 423 kts 266°
2026-04-27 17:19 41.43749 63.52040 37973 ft 423 kts 266°
2026-04-27 17:19 41.43501 63.44210 37976 ft 423 kts 266°
2026-04-27 17:20 41.43248 63.36364 37972 ft 423 kts 266°
2026-04-27 17:20 41.42990 63.28523 37976 ft 424 kts 266°
2026-04-27 17:21 41.42727 63.20675 37975 ft 424 kts 266°
2026-04-27 17:21 41.42458 63.12825 37970 ft 424 kts 266°
2026-04-27 17:22 41.42185 63.05017 37973 ft 424 kts 266°
2026-04-27 17:22 41.41905 62.97169 37971 ft 425 kts 266°
2026-04-27 17:23 41.41620 62.89298 37975 ft 425 kts 266°
2026-04-27 17:23 41.41328 62.81424 37980 ft 425 kts 266°
2026-04-27 17:24 41.41032 62.73565 37979 ft 425 kts 266°
2026-04-27 17:24 41.40731 62.65702 37982 ft 425 kts 266°
2026-04-27 17:25 41.40426 62.57898 37978 ft 424 kts 266°
2026-04-27 17:25 41.40115 62.50050 37977 ft 424 kts 266°
2026-04-27 17:26 41.39819 62.42197 37977 ft 424 kts 266°
2026-04-27 17:26 41.39528 62.34352 37973 ft 424 kts 266°
2026-04-27 17:27 41.39228 62.26504 37975 ft 424 kts 266°
2026-04-27 17:27 41.38922 62.18664 37970 ft 424 kts 266°
2026-04-27 17:28 41.38610 62.10812 37972 ft 424 kts 266°
2026-04-27 17:29 41.38132 61.99062 37972 ft 423 kts 266°
2026-04-27 17:29 41.37808 61.91232 37975 ft 423 kts 266°
2026-04-27 17:30 41.37480 61.83450 37967 ft 423 kts 266°
2026-04-27 17:30 41.36975 61.71711 37967 ft 423 kts 266°
2026-04-27 17:31 41.36631 61.63869 37969 ft 423 kts 266°
2026-04-27 17:31 41.36285 61.56094 37965 ft 423 kts 266°
2026-04-27 17:32 41.35753 61.44367 37964 ft 423 kts 266°
2026-04-27 17:33 41.35393 61.36544 37962 ft 423 kts 266°
2026-04-27 17:33 41.35029 61.28722 37961 ft 424 kts 266°
2026-04-27 17:34 41.34660 61.20898 37963 ft 424 kts 266°
2026-04-27 17:34 41.34349 61.14392 37960 ft 424 kts 266°
2026-04-27 17:35 41.33970 61.06562 37959 ft 424 kts 266°
2026-04-27 17:35 41.33585 60.98735 37958 ft 424 kts 266°
2026-04-27 17:36 41.33194 60.90897 37961 ft 424 kts 266°
2026-04-27 17:36 41.32799 60.83061 37967 ft 425 kts 265°
2026-04-27 17:37 41.32397 60.75222 37962 ft 425 kts 265°
2026-04-27 17:37 41.31991 60.67386 37963 ft 425 kts 265°
2026-04-27 17:38 41.31578 60.59548 37964 ft 425 kts 265°
2026-04-27 17:38 41.31164 60.51761 37965 ft 425 kts 265°
2026-04-27 17:39 41.30766 60.43927 37964 ft 425 kts 268°
2026-04-27 17:39 41.31006 60.36076 37957 ft 425 kts 273°
2026-04-27 17:40 41.31405 60.28230 37963 ft 425 kts 273°
2026-04-27 17:40 41.31788 60.20391 37962 ft 425 kts 273°
2026-04-27 17:41 41.32166 60.12543 37957 ft 425 kts 273°
2026-04-27 17:41 41.32539 60.04712 37957 ft 425 kts 273°
2026-04-27 17:42 41.32920 59.96861 37958 ft 424 kts 273°
2026-04-27 17:42 41.33300 59.89025 37957 ft 424 kts 273°
2026-04-27 17:43 41.33672 59.81195 37956 ft 424 kts 273°
2026-04-27 17:43 41.34038 59.73361 37956 ft 424 kts 273°
2026-04-27 17:44 41.34155 59.65536 37953 ft 423 kts 266°
2026-04-27 17:44 41.33501 59.57765 37951 ft 423 kts 263°
2026-04-27 17:45 41.32782 59.50057 37950 ft 422 kts 263°
2026-04-27 17:45 41.32056 59.42301 37947 ft 422 kts 263°
2026-04-27 17:46 41.31321 59.34559 37950 ft 422 kts 263°
2026-04-27 17:46 41.30580 59.26814 37946 ft 422 kts 263°
2026-04-27 17:47 41.29835 59.19077 37946 ft 421 kts 262°
2026-04-27 17:47 41.29085 59.11351 37947 ft 421 kts 262°
2026-04-27 17:48 41.28331 59.03630 37945 ft 421 kts 262°
2026-04-27 17:48 41.27571 58.95910 37944 ft 421 kts 262°
2026-04-27 17:49 41.26807 58.88201 37947 ft 421 kts 262°
2026-04-27 17:49 41.26038 58.80496 37948 ft 421 kts 262°
2026-04-27 17:50 41.25267 58.72824 37942 ft 421 kts 262°
2026-04-27 17:50 41.24096 58.61269 37931 ft 421 kts 262°
2026-04-27 17:51 41.23309 58.53569 37933 ft 421 kts 262°
2026-04-27 17:51 41.22517 58.45876 37938 ft 420 kts 262°
2026-04-27 17:52 41.21720 58.38181 37941 ft 420 kts 262°
2026-04-27 17:52 41.20921 58.30516 37931 ft 420 kts 262°
2026-04-27 17:53 41.20114 58.22832 37933 ft 420 kts 262°
2026-04-27 17:53 41.19303 58.15152 37930 ft 420 kts 262°
2026-04-27 17:54 41.18487 58.07464 37926 ft 420 kts 262°
2026-04-27 17:54 41.17664 57.99788 37933 ft 420 kts 262°
2026-04-27 17:55 41.16839 57.92114 37930 ft 420 kts 262°
2026-04-27 17:55 41.16008 57.84441 37927 ft 420 kts 261°
2026-04-27 17:56 41.15173 57.76781 37918 ft 420 kts 261°
2026-04-27 17:56 41.14332 57.69114 37920 ft 419 kts 261°
2026-04-27 17:57 41.13487 57.61461 37919 ft 419 kts 261°
2026-04-27 17:57 41.12636 57.53800 37925 ft 419 kts 261°
2026-04-27 17:58 41.11782 57.46154 37924 ft 419 kts 261°
2026-04-27 17:58 41.10923 57.38515 37919 ft 419 kts 261°
2026-04-27 17:59 41.10059 57.30884 37925 ft 418 kts 261°
2026-04-27 17:59 41.09191 57.23259 37913 ft 418 kts 261°
2026-04-27 18:00 41.08319 57.15645 37924 ft 418 kts 261°
2026-04-27 18:00 41.07443 57.08037 37926 ft 417 kts 261°
2026-04-27 18:01 41.06561 57.00433 37921 ft 417 kts 261°
2026-04-27 18:01 41.05676 56.92842 37917 ft 417 kts 261°
2026-04-27 18:02 41.04787 56.85260 37924 ft 416 kts 261°
2026-04-27 18:02 41.03899 56.77729 37919 ft 416 kts 261°
2026-04-27 18:03 41.03001 56.70162 37907 ft 416 kts 261°
2026-04-27 18:03 41.02098 56.62599 37913 ft 416 kts 261°
2026-04-27 18:04 41.01192 56.55047 37924 ft 415 kts 261°
2026-04-27 18:04 40.99874 56.47631 37912 ft 414 kts 252°
2026-04-27 18:05 40.97997 56.40415 37916 ft 412 kts 251°
2026-04-27 18:05 40.96143 56.33247 37904 ft 412 kts 251°
2026-04-27 18:06 40.94289 56.26085 37906 ft 412 kts 251°
2026-04-27 18:06 40.92424 56.18919 37907 ft 411 kts 251°
2026-04-27 18:07 40.90557 56.11772 37904 ft 411 kts 251°
2026-04-27 18:07 40.88687 56.04636 37902 ft 410 kts 251°
2026-04-27 18:08 40.86816 55.97518 37901 ft 410 kts 251°
2026-04-27 18:08 40.84944 55.90418 37901 ft 409 kts 251°
2026-04-27 18:09 40.83069 55.83325 37904 ft 409 kts 251°
2026-04-27 18:09 40.81205 55.76293 37906 ft 408 kts 251°
2026-04-27 18:10 40.79325 55.69221 37902 ft 408 kts 251°
2026-04-27 18:10 40.77443 55.62165 37903 ft 408 kts 251°
2026-04-27 18:11 40.75557 55.55109 37903 ft 408 kts 251°
2026-04-27 18:11 40.73668 55.48066 37903 ft 407 kts 251°
2026-04-27 18:12 40.71772 55.41016 37901 ft 408 kts 251°
2026-04-27 18:12 40.69874 55.33977 37903 ft 407 kts 251°
2026-04-27 18:13 40.67972 55.26942 37896 ft 407 kts 250°
2026-04-27 18:13 40.66065 55.19912 37901 ft 407 kts 250°
2026-04-27 18:14 40.64154 55.12886 37905 ft 407 kts 250°
2026-04-27 18:14 40.62249 55.05900 37906 ft 408 kts 250°
2026-04-27 18:15 40.60328 54.98875 37916 ft 408 kts 250°
2026-04-27 18:15 40.58401 54.91851 37913 ft 408 kts 250°
2026-04-27 18:16 40.56472 54.84833 37919 ft 408 kts 250°
2026-04-27 18:16 40.54540 54.77827 37924 ft 408 kts 250°
2026-04-27 18:17 40.52600 54.70813 37928 ft 408 kts 250°
2026-04-27 18:17 40.50659 54.63815 37927 ft 408 kts 250°
2026-04-27 18:18 40.48714 54.56818 37930 ft 408 kts 250°
2026-04-27 18:18 40.46777 54.49874 37935 ft 408 kts 250°
2026-04-27 18:19 40.44825 54.42890 37935 ft 408 kts 250°
2026-04-27 18:19 40.42866 54.35902 37931 ft 408 kts 250°
2026-04-27 18:20 40.40903 54.28920 37928 ft 408 kts 249°
2026-04-27 18:20 40.38938 54.21950 37932 ft 407 kts 249°
2026-04-27 18:21 40.36969 54.14982 37931 ft 407 kts 249°
2026-04-27 18:21 40.35329 54.09196 37934 ft 407 kts 249°
2026-04-27 18:22 40.33031 54.01107 37934 ft 407 kts 249°
2026-04-27 18:22 40.31384 53.95326 37933 ft 407 kts 249°
2026-04-27 18:23 40.29402 53.88386 37934 ft 407 kts 249°
2026-04-27 18:23 40.27416 53.81450 37934 ft 407 kts 249°
2026-04-27 18:24 40.25426 53.74518 37935 ft 407 kts 249°
2026-04-27 18:24 40.23431 53.67587 37867 ft 405 kts 249°
2026-04-27 18:25 40.22439 53.64147 37484 ft 404 kts 249°
2026-04-27 18:25 40.21447 53.60711 36819 ft 405 kts 249°
2026-04-27 18:25 40.20447 53.57255 36056 ft 407 kts 249°
2026-04-27 18:25 40.19440 53.53777 35262 ft 411 kts 249°
2026-04-27 18:26 40.18425 53.50273 34502 ft 414 kts 248°
2026-04-27 18:26 40.17400 53.46743 33695 ft 417 kts 248°
2026-04-27 18:26 40.16367 53.43188 32872 ft 419 kts 248°
2026-04-27 18:26 40.15333 53.39633 32228 ft 417 kts 248°
2026-04-27 18:27 40.14296 53.36076 32016 ft 421 kts 248°
2026-04-27 18:27 40.13243 53.32472 31951 ft 428 kts 248°
2026-04-27 18:27 40.11130 53.25249 31956 ft 427 kts 248°
2026-04-27 18:28 40.09007 53.18011 31963 ft 427 kts 248°
2026-04-27 18:28 40.06880 53.10773 31965 ft 427 kts 248°
2026-04-27 18:29 40.05785 53.03173 31967 ft 431 kts 270°
2026-04-27 18:29 40.06175 52.99292 31969 ft 435 kts 281°
2026-04-27 18:29 40.07183 52.95561 31964 ft 439 kts 292°
2026-04-27 18:30 40.10523 52.88814 31970 ft 444 kts 301°
2026-04-27 18:30 40.14026 52.82202 31974 ft 445 kts 301°
2026-04-27 18:31 40.17535 52.75538 31978 ft 445 kts 301°
2026-04-27 18:31 40.21034 52.68871 31979 ft 445 kts 301°
2026-04-27 18:32 40.24472 52.62161 31964 ft 441 kts 297°
2026-04-27 18:32 40.26985 52.54901 31970 ft 436 kts 285°
2026-04-27 18:33 40.28517 52.47261 31974 ft 434 kts 281°
2026-04-27 18:33 40.29989 52.39596 31972 ft 433 kts 281°
2026-04-27 18:34 40.31452 52.31929 31981 ft 433 kts 281°
2026-04-27 18:34 40.32902 52.24265 31983 ft 433 kts 281°
2026-04-27 18:35 40.34281 52.16941 31984 ft 433 kts 281°
2026-04-27 18:35 40.35713 52.09310 31975 ft 432 kts 281°
2026-04-27 18:36 40.36430 52.05478 31780 ft 432 kts 281°
2026-04-27 18:36 40.37145 52.01642 31534 ft 433 kts 281°
2026-04-27 18:36 40.37863 51.97790 31277 ft 434 kts 281°
2026-04-27 18:36 40.38579 51.93939 31044 ft 435 kts 281°
2026-04-27 18:37 40.39296 51.90075 30809 ft 437 kts 281°
2026-04-27 18:37 40.40013 51.86206 30561 ft 436 kts 281°
2026-04-27 18:37 40.40728 51.82341 30277 ft 433 kts 281°
2026-04-27 18:37 40.41434 51.78518 29718 ft 430 kts 281°
2026-04-27 18:38 40.42134 51.74717 29102 ft 426 kts 281°
2026-04-27 18:38 40.42826 51.70951 28484 ft 422 kts 281°
2026-04-27 18:38 40.43500 51.67280 27893 ft 417 kts 281°
2026-04-27 18:38 40.44176 51.63583 27274 ft 414 kts 281°
2026-04-27 18:39 40.44844 51.59930 26698 ft 410 kts 281°
2026-04-27 18:39 40.45504 51.56311 26122 ft 406 kts 281°
2026-04-27 18:39 40.46157 51.52719 25557 ft 402 kts 280°
2026-04-27 18:39 40.46733 51.49148 24997 ft 398 kts 276°
2026-04-27 18:40 40.47075 51.45563 24459 ft 393 kts 274°
2026-04-27 18:40 40.47403 51.42031 23713 ft 388 kts 274°
2026-04-27 18:40 40.47734 51.38534 22825 ft 384 kts 274°
2026-04-27 18:40 40.48060 51.35078 21979 ft 378 kts 274°
2026-04-27 18:41 40.48380 51.31674 21161 ft 373 kts 274°
2026-04-27 18:41 40.48694 51.28310 20357 ft 368 kts 274°
2026-04-27 18:41 40.49003 51.24988 19585 ft 363 kts 274°
2026-04-27 18:41 40.49306 51.21705 18815 ft 359 kts 274°
2026-04-27 18:42 40.49604 51.18467 18029 ft 355 kts 275°
2026-04-27 18:42 40.49799 51.16340 17480 ft 352 kts 274°
2026-04-27 18:42 40.50185 51.12131 16388 ft 347 kts 275°
2026-04-27 18:42 40.50471 51.09000 15627 ft 343 kts 275°
2026-04-27 18:43 40.50752 51.05918 14906 ft 338 kts 275°
2026-04-27 18:43 40.51029 51.02865 14144 ft 335 kts 275°
2026-04-27 18:43 40.51302 50.99851 13390 ft 331 kts 275°
2026-04-27 18:43 40.51571 50.96863 12619 ft 327 kts 275°
2026-04-27 18:44 40.51640 50.93923 11851 ft 322 kts 261°
2026-04-27 18:44 40.50989 50.91153 11296 ft 313 kts 243°
2026-04-27 18:44 40.49742 50.88920 11093 ft 295 kts 229°
2026-04-27 18:44 40.48401 50.87012 11031 ft 272 kts 230°
2026-04-27 18:45 40.47171 50.85240 10925 ft 253 kts 230°
2026-04-27 18:45 40.46024 50.83584 10761 ft 238 kts 231°
2026-04-27 18:45 40.44943 50.82021 10410 ft 231 kts 231°
2026-04-27 18:45 40.43864 50.80456 9898 ft 232 kts 231°
2026-04-27 18:46 40.42774 50.78890 9416 ft 230 kts 231°
2026-04-27 18:46 40.41688 50.77334 8931 ft 232 kts 231°
2026-04-27 18:46 40.40601 50.75781 8618 ft 230 kts 231°
2026-04-27 18:46 40.39525 50.74242 8301 ft 228 kts 231°
2026-04-27 18:47 40.38460 50.72714 8047 ft 224 kts 231°
2026-04-27 18:47 40.37428 50.71244 7978 ft 212 kts 231°
2026-04-27 18:47 40.36435 50.69827 7985 ft 217 kts 232°
2026-04-27 18:47 40.35362 50.68278 7989 ft 247 kts 231°
2026-04-27 18:48 40.34169 50.66565 7975 ft 256 kts 231°
2026-04-27 18:48 40.32968 50.64863 7970 ft 252 kts 231°
2026-04-27 18:48 40.31785 50.63189 7988 ft 247 kts 231°
2026-04-27 18:48 40.30627 50.61544 7980 ft 244 kts 231°
2026-04-27 18:49 40.29475 50.59905 7985 ft 245 kts 231°
2026-04-27 18:49 40.28320 50.58261 7977 ft 245 kts 231°
2026-04-27 18:49 40.27167 50.56617 7980 ft 245 kts 231°
2026-04-27 18:49 40.26017 50.54979 7982 ft 244 kts 231°
2026-04-27 18:50 40.24864 50.53340 7985 ft 246 kts 231°
2026-04-27 18:50 40.23705 50.51676 7982 ft 248 kts 233°
2026-04-27 18:50 40.22719 50.49882 7976 ft 245 kts 240°
2026-04-27 18:50 40.21778 50.48029 7982 ft 243 kts 239°
2026-04-27 18:51 40.20838 50.46194 7981 ft 242 kts 240°
2026-04-27 18:51 40.19898 50.44358 7987 ft 243 kts 239°
2026-04-27 18:51 40.18954 50.42522 7980 ft 243 kts 239°
2026-04-27 18:51 40.18004 50.40683 7981 ft 245 kts 239°
2026-04-27 18:52 40.17051 50.38837 7987 ft 243 kts 239°
2026-04-27 18:52 40.16113 50.37021 7985 ft 239 kts 240°
2026-04-27 18:52 40.15208 50.35263 7981 ft 232 kts 240°
2026-04-27 18:53 40.13442 50.31832 7820 ft 229 kts 240°
2026-04-27 18:53 40.12540 50.30080 7730 ft 232 kts 239°
2026-04-27 18:53 40.11643 50.28340 7672 ft 229 kts 239°
2026-04-27 18:53 40.10759 50.26620 7670 ft 227 kts 239°
2026-04-27 18:54 40.09872 50.24895 7672 ft 230 kts 239°
2026-04-27 18:54 40.08974 50.23149 7670 ft 232 kts 239°
2026-04-27 18:54 40.08108 50.21402 7671 ft 231 kts 244°
2026-04-27 18:54 40.07471 50.19481 7672 ft 230 kts 255°
2026-04-27 18:55 40.07319 50.17416 7582 ft 231 kts 277°
2026-04-27 18:55 40.07530 50.15335 7458 ft 229 kts 277°
2026-04-27 18:55 40.07744 50.13311 7359 ft 221 kts 277°
2026-04-27 18:55 40.07949 50.11358 7170 ft 212 kts 277°
2026-04-27 18:56 40.08146 50.09485 7053 ft 205 kts 277°
2026-04-27 18:56 40.08339 50.07623 6947 ft 211 kts 277°
2026-04-27 18:56 40.08540 50.05669 6821 ft 222 kts 277°
2026-04-27 18:56 40.08744 50.03680 6746 ft 219 kts 277°
2026-04-27 18:57 40.08943 50.01735 6624 ft 214 kts 277°
2026-04-27 18:57 40.09140 49.99814 6500 ft 214 kts 277°
2026-04-27 18:57 40.09337 49.97866 6379 ft 218 kts 277°
2026-04-27 18:57 40.09537 49.95895 6256 ft 218 kts 277°
2026-04-27 18:58 40.09781 49.93976 6179 ft 209 kts 287°
2026-04-27 18:58 40.10203 49.92869 6176 ft 206 kts 305°
2026-04-27 18:58 40.11808 49.91439 6186 ft 224 kts 343°
2026-04-27 18:58 40.13397 49.91504 6193 ft 237 kts 15°
2026-04-27 18:59 40.14831 49.92603 6205 ft 242 kts 34°
2026-04-27 18:59 40.16145 49.93961 6193 ft 244 kts 36°
2026-04-27 18:59 40.17451 49.95352 6105 ft 237 kts 35°
2026-04-27 18:59 40.18696 49.96659 5964 ft 222 kts 34°
2026-04-27 19:00 40.19892 49.97887 5685 ft 215 kts 33°
2026-04-27 19:00 40.21065 49.99073 5350 ft 211 kts 32°
2026-04-27 19:00 40.22219 50.00232 5063 ft 203 kts 31°
2026-04-27 19:00 40.23274 50.01305 4996 ft 183 kts 30°
2026-04-27 19:01 40.24238 50.02279 4889 ft 168 kts 28°
2026-04-27 19:01 40.25135 50.03182 4689 ft 158 kts 27°
2026-04-27 19:01 40.25978 50.04025 4484 ft 151 kts 26°
2026-04-27 19:01 40.26803 50.04848 4230 ft 147 kts 26°
2026-04-27 19:02 40.27609 50.05648 3965 ft 143 kts 25°
2026-04-27 19:02 40.28386 50.06422 3735 ft 138 kts 25°
2026-04-27 19:02 40.29146 50.07175 3457 ft 136 kts 25°
2026-04-27 19:02 40.29878 50.07911 3134 ft 131 kts 25°
2026-04-27 19:03 40.30617 50.08475 2782 ft 114 kts
2026-04-27 19:03 40.31317 50.08497 2637 ft 90 kts 351°
2026-04-27 19:03 40.32005 50.08368 2611 ft 103 kts 348°
2026-04-27 19:03 40.32469 50.08247 2565 ft 103 kts 347°
2026-04-27 19:04 40.33390 50.07969 2425 ft 101 kts 345°
2026-04-27 19:04 40.34060 50.07761 2310 ft 100 kts 345°
2026-04-27 19:04 40.34740 50.07548 2189 ft 100 kts 345°
2026-04-27 19:04 40.35417 50.07335 2064 ft 101 kts 345°
2026-04-27 19:05 40.36085 50.07126 1921 ft 99 kts 345°
2026-04-27 19:05 40.36766 50.06912 1800 ft 101 kts 345°
2026-04-27 19:05 40.37439 50.06701 1665 ft 99 kts 345°
2026-04-27 19:05 40.38117 50.06488 1530 ft 100 kts 346°
2026-04-27 19:06 40.38799 50.06274 1395 ft 101 kts 346°
2026-04-27 19:06 40.39479 50.06061 1271 ft 101 kts 344°
2026-04-27 19:06 40.40165 50.05846 1123 ft 103 kts 344°
2026-04-27 19:06 40.40860 50.05627 990 ft 104 kts 343°
2026-04-27 19:07 40.41589 50.05399 838 ft 110 kts 344°
2026-04-27 19:07 40.42343 50.05161 676 ft 112 kts 344°
2026-04-27 19:07 40.43103 50.04920 515 ft 113 kts 343°
2026-04-27 19:07 40.43872 50.04687 366 ft 115 kts 341°
2026-04-27 19:08 40.44657 50.04429 229 ft 118 kts 343°
2026-04-27 19:08 40.45479 50.04168 70 ft 124 kts 343°
2026-04-27 19:08 40.46265 50.03928 -5 ft 105 kts 344°
2026-04-27 19:08 40.46791 50.03758 -4 ft 49 kts 347°
2026-04-27 19:09 40.46986 50.03696 1 ft 22 kts 346°
2026-04-27 19:09 40.47078 50.03668 1 ft 18 kts 348°
2026-04-27 19:09 40.47256 50.03613 3 ft 28 kts 347°
2026-04-27 19:09 40.47548 50.03516 4 ft 43 kts 346°
2026-04-27 19:10 40.47678 50.03542 3 ft 13 kts 69°
2026-04-27 19:10 40.47673 50.03615 3 ft 13 kts 117°
2026-04-27 19:10 40.47591 50.03658 3 ft 15 kts 179°
2026-04-27 19:10 40.47521 50.03673 3 ft 16 kts 162°
2026-04-27 19:11 40.47441 50.03713 3 ft 0 kts 158°
2026-04-27 19:11 40.47439 50.03714 3 ft 1 kts 158°
2026-04-27 19:11 40.47410 50.03729 3 ft 9 kts 158°
2026-04-27 19:11 40.47288 50.03789 2 ft 35 kts 159°
2026-04-27 19:12 40.47039 50.03909 0 ft 41 kts 160°
2026-04-27 19:12 40.46871 50.04004 -1 ft 13 kts 136°
2026-04-27 19:12 40.46859 50.04124 -1 ft 15 kts 77°
2026-04-27 19:12 40.46896 50.04319 -1 ft 26 kts 77°
2026-04-27 19:13 40.46913 50.04569 0 ft 29 kts 89°
2026-04-27 19:13 40.46919 50.04842 1 ft 30 kts 89°
2026-04-27 19:13 40.46927 50.05117 3 ft 28 kts 91°
2026-04-27 19:13 40.46926 50.05171 3 ft 1 kts 91°
2026-04-27 19:14 40.46926 50.05196 3 ft 4 kts 91°
2026-04-27 19:14 40.46926 50.05249 3 ft 7 kts 86°
2026-04-27 19:14 40.46931 50.05343 4 ft 17 kts 88°
2026-04-27 19:14 40.46937 50.05580 5 ft 33 kts 88°
2026-04-27 19:15 40.46944 50.05894 6 ft 35 kts 89°
2026-04-27 19:15 40.46887 50.06083 5 ft 23 kts 169°
2026-04-27 19:15 40.46816 50.06086 5 ft 1 kts 179°
2026-04-27 19:15 40.46797 50.06087 5 ft 5 kts 179°
2026-04-27 19:16 40.46751 50.06088 4 ft 8 kts 179°
2026-04-27 19:16 40.46705 50.06089 4 ft 11 kts 179°
2026-04-27 19:16 40.46599 50.06076 3 ft 12 kts 216°
2026-04-27 19:16 40.46580 50.05975 3 ft 12 kts 259°
2026-04-27 19:17 40.46533 50.05933 2 ft 9 kts 229°
2026-04-27 19:17 40.46519 50.05844 2 ft 7 kts 268°
2026-04-27 19:17 40.46519 50.05832 2 ft 3 kts 270°
2026-04-27 19:17 40.46519 50.05795 2 ft 6 kts 269°
2026-04-27 19:18 40.46519 50.05745 2 ft 3 kts 279°
2026-04-27 19:18 40.46532 50.05723 2 ft 4 kts 320°
2026-04-27 19:18 40.46558 50.05711 2 ft 4 kts 345°
2026-04-27 19:18 40.46568 50.05711 2 ft 0 kts
2026-04-27 19:19 40.46546 50.05711 3 ft 10 kts
2026-04-27 19:19 40.46513 50.05733 2 ft 1 kts 298°
2026-04-27 19:20 40.46514 50.05729 2 ft 1 kts 294°
2026-04-27 19:20 40.46516 50.05715 3 ft 3 kts 279°
2026-04-27 19:20 40.46519 50.05680 3 ft 5 kts 276°
2026-04-27 19:20 40.46543 50.05658 2 ft 4 kts 352°
2026-04-27 19:21 40.46571 50.05657 2 ft 0 kts